Wind_Speed
11 12 11 4 2 4 4 6 3 5 4 5 4 6 8 5 7 5 5 17 13 19 18 23 22 17 13 11 11 11 11 12 12 12 13 13 13 12 11 11 12 11 10 10 10 12 13 14 13
11 11 7 3 3 1 5 4 6 6 7 11 6 5 2 5 7 3 14 17 15 18 16 17 18 16 13 11 11 12 12 13 14 15 15 14 14 13 12 13 14 14 13 10 10 11 12 13 14
11 8 3 3 3 5 5 5 4 13 28 14 4 7 3 4 7 4 10 16 17 19 16 15 17 16 14 12 11 10 11 13 15 17 18 17 15 14 15 14 16 16 15 13 13 13 13 13 13
7 3 3 2 7 7 6 7 6 11 17 6 6 3 6 8 4 8 14 17 16 15 15 14 16 15 13 11 10 9 10 11 14 17 18 16 15 17 18 16 18 19 18 18 16 15 16 15 15
9 2 1 2 6 6 7 18 16 7 8 9 4 5 6 9 13 10 13 17 15 13 14 14 16 17 13 9 7 7 7 10 13 15 15 14 18 19 21 20 21 20 21 19 19 18 16 18 18
4 2 1 4 6 5 7 18 15 5 5 8 4 4 8 12 17 14 15 16 14 9 13 17 18 17 14 11 9 9 9 9 13 13 14 14 16 19 22 22 22 23 22 24 20 20 19 20 21
4 4 5 4 6 6 6 3 5 1 6 7 7 3 7 12 15 17 16 18 15 15 14 19 18 17 16 14 12 10 9 11 14 12 12 13 14 18 22 24 25 26 27 25 24 24 23 22 22
6 4 3 6 4 8 7 4 7 2 9 13 3 4 8 20 12 21 19 22 18 18 18 19 19 19 18 17 14 11 12 15 16 14 13 14 15 16 18 20 20 20 23 24 24 25 25 24 23
9 2 6 7 7 8 3 3 5 3 9 8 13 25 26 28 20 23 26 28 25 25 24 23 21 20 19 18 16 13 14 17 16 15 14 15 14 13 13 12 13 14 14 14 15 18 22 24 26
9 6 11 11 9 6 7 2 17 8 18 15 21 27 28 29 25 28 34 34 31 30 28 27 24 24 22 21 17 14 17 17 16 15 14 14 12 13 10 11 10 10 10 12 15 16 17 17 23
9 14 19 19 24 8 7 15 14 11 15 27 21 35 37 32 25 30 34 35 31 28 29 28 27 27 25 22 18 16 18 16 14 13 12 13 13 12 11 10 10 10 11 14 16 16 15 18 20
4 18 28 27 24 14 7 15 21 22 28 38 36 40 41 31 27 33 34 37 33 31 29 28 29 29 27 22 17 17 16 14 11 10 10 12 12 12 12 11 10 10 9 11 10 13 13 16 18
9 10 19 24 25 29 23 17 22 29 44 40 37 39 38 34 32 35 31 34 34 33 32 31 31 31 27 22 18 16 13 11 9 9 10 11 12 13 13 12 11 10 11 12 11 10 12 13 15
8 22 25 21 32 32 19 19 21 40 37 35 34 38 40 37 32 37 37 36 38 36 35 34 32 30 26 22 17 12 9 7 8 9 11 12 12 13 14 15 14 11 11 12 12 11 11 14 16
12 7 8 14 23 9 21 14 21 47 30 30 35 40 41 38 32 35 37 33 37 40 37 33 32 30 26 20 15 10 6 7 9 11 12 14 14 14 14 15 15 15 12 12 12 11 11 13 16
2 2 3 7 5 8 12 14 23 35 27 35 33 30 34 35 34 34 37 37 41 41 37 31 31 29 24 18 12 7 6 7 10 12 13 15 16 15 14 14 15 14 13 12 11 11 12 12 15
3 9 10 8 8 4 8 12 15 23 11 23 32 33 31 33 35 34 34 38 42 42 37 30 30 27 21 15 11 8 7 7 10 12 13 14 13 13 14 13 11 13 13 11 12 12 13 12 13
5 5 6 10 2 4 10 15 18 39 16 23 27 35 37 39 42 37 30 39 42 39 33 28 29 24 19 15 12 8 6 8 11 12 13 12 11 11 12 12 12 13 11 11 12 13 14 13 12
7 14 13 3 4 7 10 10 14 23 13 18 29 34 41 42 37 27 25 34 33 30 30 31 30 24 20 15 11 7 5 8 9 12 13 10 10 10 11 11 12 12 11 11 12 13 16 14 12
9 12 17 12 4 7 10 13 15 17 18 20 28 37 36 30 24 23 23 27 32 33 34 33 26 21 17 12 9 5 6 8 10 12 11 9 9 11 11 9 10 9 9 10 11 13 17 15 13
13 18 17 11 6 6 7 13 12 14 14 19 25 22 23 24 20 19 20 26 30 33 37 30 22 18 15 11 7 4 6 8 10 10 7 7 7 8 5 7 9 6 6 6 7 11 16 15 14
18 15 15 12 4 8 5 6 9 9 17 8 21 23 25 21 21 19 22 23 28 35 31 23 20 18 14 9 5 3 5 8 8 8 5 5 4 2 2 6 6 5 5 6 8 10 12 13 13
13 7 7 7 7 2 5 5 6 5 10 14 11 26 29 24 21 18 18 22 30 32 26 21 19 16 11 7 5 2 6 8 8 8 6 5 3 2 3 5 6 4 4 6 8 11 12 11 10
4 3 4 4 1 10 13 7 5 6 12 6 6 14 17 14 14 14 19 25 32 28 23 21 18 13 8 7 4 2 6 6 8 8 7 4 4 5 6 7 6 4 4 5 7 10 11 10 9
7 7 2 4 1 6 6 6 15 11 10 9 12 21 12 10 16 20 26 35 32 28 23 20 17 10 8 7 5 1 6 6 9 10 6 2 3 9 9 8 7 5 6 6 5 7 9 8 8
15 9 6 6 3 5 5 8 9 13 15 21 23 18 10 17 20 24 31 36 31 26 22 19 14 10 8 9 5 1 4 6 7 9 5 3 6 9 10 9 5 5 5 4 3 4 8 6 5
11 10 12 1 2 1 4 8 8 6 9 5 1 6 15 20 24 27 34 33 29 23 20 17 12 11 8 8 5 2 4 6 6 10 7 4 7 9 10 8 5 3 4 2 2 3 4 5 6
9 11 7 6 6 3 5 5 6 2 6 3 6 10 19 21 24 27 34 32 25 20 18 16 12 10 9 8 5 3 2 6 6 7 7 4 7 10 9 7 6 2 3 3 3 3 3 5 7
5 7 3 8 5 5 1 6 8 9 9 9 9 17 24 27 27 30 34 29 22 20 19 16 13 12 10 8 7 3 1 5 4 4 2 3 6 10 9 7 6 3 4 4 5 6 6 6 6
22 16 8 7 4 4 3 6 3 9 7 7 8 15 19 23 27 30 33 29 24 22 21 16 14 12 9 8 6 5 1 3 3 3 3 3 8 9 8 5 6 7 6 7 9 9 9 7 5
Wind_Direction
151 147 141 141 33 64 260 257 296 280 297 307 156 172 193 173 166 211 203 165 178 178 190 195 202 207 216 231 238 249 263 270 274 276 277 278 276 276 273 273 280 277 263 256 263 271 271 267 259
149 149 137 110 101 321 262 245 234 230 265 303 275 245 250 253 221 230 161 176 175 176 184 187 196 205 218 227 233 246 260 270 271 266 270 274 270 271 266 272 277 281 276 268 253 256 268 269 265
151 150 118 120 156 211 238 227 248 305 319 256 223 236 248 238 231 217 192 187 175 179 185 188 195 206 213 219 231 252 271 276 275 272 268 272 271 264 267 270 274 273 264 264 271 273 261 263 267
155 160 81 110 240 260 239 277 302 316 332 171 222 258 249 243 231 226 200 187 178 174 187 191 197 200 207 214 236 261 275 290 286 277 275 276 270 263 263 269 271 266 264 263 259 254 264 266 262
168 122 83 251 251 257 256 267 287 296 286 310 235 257 244 247 238 226 207 191 186 184 192 196 199 206 200 206 228 259 276 302 300 287 276 264 262 266 262 267 262 259 262 258 260 258 255 256 259
146 123 53 243 231 246 263 269 277 233 305 305 220 216 257 255 233 227 215 198 190 209 199 202 202 206 207 206 227 246 249 299 310 293 277 265 263 264 262 261 259 262 259 262 257 257 257 251 254
147 109 233 252 261 281 226 246 192 250 316 314 279 219 274 277 246 225 220 200 204 210 210 208 207 207 213 218 231 248 261 289 306 293 273 263 264 269 268 263 260 255 253 257 258 255 249 249 252
196 134 258 245 218 260 214 207 194 240 292 319 281 245 276 301 268 232 217 203 214 216 219 220 213 211 215 219 233 251 276 293 299 290 274 269 274 272 272 268 264 261 259 256 256 257 256 248 246
187 158 242 240 186 241 141 329 299 318 281 285 283 286 291 293 281 225 205 206 214 218 223 223 220 216 220 222 236 254 277 290 293 281 273 273 277 279 276 268 264 257 257 258 262 261 253 247 241
182 197 227 220 216 246 293 309 305 319 303 287 288 293 292 294 264 222 205 210 216 222 222 222 222 219 218 223 238 257 278 288 283 274 269 267 267 286 272 280 269 258 260 252 254 262 258 240 242
207 225 229 259 248 270 285 303 306 277 285 286 286 300 302 302 247 223 225 223 232 230 225 225 221 220 222 224 239 260 275 278 273 268 270 267 269 286 272 282 261 258 251 249 254 256 252 239 238
213 231 237 250 264 277 255 289 283 284 272 282 291 295 296 287 265 236 232 231 232 231 231 228 223 221 221 225 239 257 271 270 270 271 272 270 273 273 267 269 266 256 257 261 270 257 253 241 238
237 241 244 253 267 270 281 263 267 278 279 286 290 291 291 288 268 251 244 241 235 235 233 229 224 223 221 228 237 260 268 270 278 275 278 279 275 269 261 264 258 255 257 258 260 261 249 239 231
202 235 253 268 262 262 270 278 277 272 274 280 286 290 294 293 278 252 236 242 234 238 236 231 229 224 222 227 244 260 257 272 277 286 283 277 277 269 260 257 254 258 261 253 255 262 249 237 231
250 238 260 253 258 249 264 274 258 267 281 281 284 288 286 286 277 250 251 250 243 239 234 234 231 222 218 227 244 250 252 276 289 291 283 276 274 272 261 259 250 249 258 255 250 258 248 243 228
190 207 239 256 220 252 187 259 270 273 272 274 279 288 289 286 280 269 259 250 241 236 233 233 226 216 215 229 238 233 245 280 304 296 289 279 273 270 263 259 252 247 255 254 250 258 246 243 230
246 249 254 289 233 232 177 270 272 282 281 281 285 289 286 289 290 286 265 248 243 235 232 230 220 209 216 222 219 224 243 287 306 302 293 277 272 273 267 263 258 244 246 251 252 251 239 233 227
194 242 238 234 263 215 256 256 274 279 267 269 284 289 290 296 292 297 275 248 239 233 232 225 207 204 210 211 211 224 265 292 307 311 301 280 277 278 269 266 248 236 242 250 250 246 230 223 220
207 231 246 250 207 244 245 265 266 279 273 275 283 285 292 293 296 291 279 250 238 228 219 205 199 203 209 206 208 228 281 300 307 314 302 285 283 283 279 265 240 232 244 253 247 239 218 210 205
210 237 252 267 229 237 271 273 272 275 275 266 273 278 282 285 283 279 265 245 236 223 204 198 198 206 205 199 213 240 288 311 313 317 303 286 291 291 275 252 223 234 243 252 249 226 199 198 196
215 224 241 247 313 253 309 289 271 279 276 276 282 284 294 274 270 266 242 229 221 204 195 188 194 201 193 195 211 255 304 325 323 321 308 298 300 296 267 219 214 227 239 247 212 191 188 195 195
221 218 241 262 273 267 143 281 302 300 299 284 284 294 292 284 269 243 228 216 203 190 181 182 190 189 187 195 208 256 325 346 337 335 321 304 307 306 166 183 204 208 212 201 175 172 182 190 195
232 204 217 231 229 229 255 277 270 272 281 282 275 285 279 270 261 246 223 200 183 176 174 180 182 181 186 194 205 286 344 342 343 337 324 286 287 189 189 174 171 176 189 172 176 175 179 192 210
136 219 30 33 53 258 263 207 225 228 239 260 264 276 294 267 231 209 195 175 168 169 175 176 179 174 178 191 200 325 352 348 347 347 328 281 254 197 171 155 143 141 147 163 175 178 187 194 209
141 99 284 332 296 235 197 185 250 254 231 226 258 276 296 218 177 179 169 166 167 173 176 178 175 171 175 180 189 319 357 354 348 348 339 294 169 178 168 148 138 134 122 113 131 177 189 206 215
196 168 154 204 226 256 164 206 248 226 233 246 259 262 224 191 173 171 169 168 171 177 176 176 174 174 177 175 182 155 4 1 352 359 17 97 143 163 166 159 144 153 119 110 116 176 191 194 231
199 191 181 354 180 323 228 281 309 228 260 267 261 208 190 182 173 171 170 170 175 175 176 175 172 173 175 173 184 162 42 15 17 27 32 116 144 161 169 165 166 156 159 135 116 158 201 227 210
158 142 180 202 204 225 268 269 234 249 246 290 228 204 183 176 172 169 172 173 174 175 173 169 174 171 170 174 169 131 17 18 35 41 46 95 149 163 170 171 175 131 136 131 134 155 181 179 183
165 174 157 170 168 170 279 262 215 229 232 234 224 189 185 174 172 170 172 174 172 171 175 173 175 172 172 172 175 179 18 14 23 32 71 100 149 162 163 169 183 167 133 121 112 116 102 125 144
199 193 156 192 195 212 166 267 217 231 256 233 227 176 183 177 170 171 172 172 172 174 177 182 178 177 174 172 177 168 190 5 14 25 121 106 157 161 165 171 164 143 123 107 99 94 91 94 109
Height
1523 1525 1526 1531 1542 1543 1544 1528 1513 1509 1506 1501 1498 1500 1500 1499 1505 1516 1493 1494 1497 1500 1503 1505 1508 1511 1513 1514 1514 1515 1516 1515 1515 1515 1515 1516 1516 1516 1517 1518 1520 1520 1522 1520 1519 1519 1521 1521 1521
1523 1525 1527 1529 1546 1552 1539 1517 1512 1505 1502 1500 1499 1497 1497 1495 1494 1492 1492 1494 1496 1499 1501 1503 1506 1508 1510 1511 1512 1514 1514 1514 1514 1514 1513 1513 1513 1514 1515 1515 1517 1517 1519 1519 1519 1520 1519 1519 1520
1524 1525 1527 1531 1543 1548 1533 1510 1505 1499 1496 1497 1497 1496 1494 1493 1491 1490 1490 1492 1494 1497 1500 1502 1504 1506 1508 1509 1510 1511 1512 1512 1512 1512 1512 1512 1512 1512 1514 1513 1515 1516 1517 1517 1517 1516 1518 1518 1518
1524 1527 1528 1536 1538 1529 1518 1503 1503 1500 1494 1495 1495 1496 1494 1491 1491 1490 1489 1491 1493 1494 1497 1500 1502 1503 1505 1507 1508 1509 1510 1510 1509 1509 1510 1511 1510 1510 1511 1510 1512 1513 1514 1514 1515 1516 1516 1516 1517
1525 1527 1534 1537 1530 1519 1509 1502 1502 1501 1500 1497 1497 1494 1492 1488 1489 1489 1488 1489 1490 1492 1495 1497 1500 1502 1502 1504 1505 1507 1508 1508 1508 1506 1506 1507 1508 1509 1509 1508 1509 1508 1509 1510 1511 1511 1512 1513 1516
1525 1527 1540 1539 1525 1510 1504 1499 1500 1498 1497 1495 1494 1493 1489 1487 1486 1487 1488 1489 1491 1493 1493 1495 1497 1500 1501 1501 1503 1504 1504 1505 1505 1504 1504 1504 1504 1506 1506 1505 1505 1505 1505 1506 1507 1509 1510 1510 1510
1524 1529 1534 1527 1517 1510 1500 1494 1496 1496 1494 1493 1492 1491 1488 1486 1486 1486 1487 1489 1490 1491 1492 1494 1495 1497 1499 1500 1499 1500 1501 1502 1502 1502 1502 1501 1501 1502 1501 1500 1499 1500 1500 1501 1502 1503 1504 1505 1505
1521 1524 1526 1523 1516 1510 1492 1491 1490 1493 1491 1492 1491 1489 1486 1484 1483 1482 1485 1488 1488 1489 1491 1491 1491 1493 1494 1497 1497 1498 1498 1499 1499 1498 1498 1498 1498 1497 1496 1495 1494 1493 1494 1495 1496 1497 1498 1500 1501
1516 1527 1529 1516 1512 1496 1489 1492 1489 1491 1491 1490 1489 1487 1484 1483 1481 1479 1479 1482 1484 1485 1487 1488 1489 1490 1492 1495 1497 1496 1496 1496 1495 1495 1495 1495 1494 1494 1493 1492 1491 1491 1491 1491 1492 1493 1493 1495 1497
1513 1520 1513 1494 1493 1490 1488 1492 1491 1489 1486 1483 1484 1481 1482 1481 1477 1475 1474 1474 1478 1479 1482 1484 1485 1486 1488 1491 1493 1494 1494 1494 1493 1492 1492 1492 1491 1491 1490 1489 1488 1488 1488 1489 1489 1489 1490 1491 1493
1503 1502 1492 1489 1488 1491 1488 1486 1490 1486 1484 1480 1480 1477 1476 1475 1474 1471 1471 1472 1471 1475 1478 1479 1481 1483 1485 1487 1489 1491 1492 1491 1490 1489 1488 1488 1487 1487 1487 1486 1486 1486 1486 1486 1486 1486 1486 1488 1489
1500 1493 1491 1484 1488 1489 1487 1487 1483 1484 1478 1475 1475 1474 1472 1470 1469 1468 1465 1466 1468 1470 1472 1475 1477 1480 1483 1485 1486 1488 1488 1488 1487 1486 1485 1484 1484 1484 1484 1484 1484 1483 1483 1483 1483 1483 1484 1485 1486
1491 1486 1485 1487 1486 1481 1483 1482 1479 1476 1469 1471 1469 1468 1465 1464 1462 1462 1460 1461 1464 1465 1468 1470 1473 1475 1480 1482 1484 1484 1485 1485 1483 1482 1482 1481 1480 1480 1480 1480 1481 1481 1481 1481 1481 1481 1482 1482 1484
1480 1484 1483 1484 1481 1478 1478 1476 1476 1461 1464 1464 1463 1461 1458 1458 1456 1457 1456 1455 1457 1460 1464 1468 1471 1475 1478 1480 1482 1481 1481 1481 1480 1480 1479 1478 1477 1477 1476 1477 1477 1477 1478 1478 1478 1478 1479 1480 1482
1477 1482 1480 1477 1471 1471 1473 1473 1465 1454 1461 1459 1456 1454 1452 1450 1450 1450 1449 1449 1450 1453 1460 1464 1468 1472 1475 1478 1479 1478 1478 1478 1478 1477 1475 1474 1473 1473 1473 1472 1473 1473 1474 1474 1475 1476 1476 1477 1479
1475 1477 1483 1466 1464 1465 1469 1467 1449 1452 1455 1451 1449 1446 1446 1443 1442 1442 1442 1444 1445 1450 1456 1461 1465 1469 1473 1475 1475 1475 1476 1475 1475 1473 1472 1471 1470 1469 1468 1469 1469 1470 1470 1470 1471 1472 1473 1475 1477
1478 1478 1478 1472 1459 1463 1463 1459 1446 1448 1449 1445 1441 1439 1439 1436 1434 1433 1434 1437 1439 1445 1451 1457 1461 1466 1471 1471 1473 1473 1474 1473 1472 1470 1469 1467 1466 1465 1465 1465 1465 1466 1466 1467 1468 1469 1471 1473 1475
1477 1480 1475 1466 1457 1458 1459 1456 1447 1441 1445 1439 1435 1433 1431 1426 1423 1425 1428 1430 1434 1441 1448 1454 1459 1464 1467 1469 1470 1471 1470 1470 1469 1467 1465 1464 1463 1461 1461 1461 1462 1463 1463 1464 1465 1467 1469 1472 1474
1464 1467 1464 1458 1456 1460 1456 1453 1448 1439 1439 1434 1430 1426 1421 1418 1417 1417 1420 1425 1431 1438 1444 1449 1455 1460 1463 1465 1467 1468 1467 1467 1466 1464 1462 1461 1460 1458 1458 1458 1459 1460 1461 1462 1463 1464 1467 1470 1473
1460 1465 1462 1455 1456 1458 1453 1450 1441 1435 1428 1427 1424 1419 1414 1413 1412 1413 1415 1420 1424 1430 1437 1445 1453 1458 1460 1463 1464 1464 1465 1464 1463 1461 1459 1458 1457 1455 1454 1455 1456 1458 1459 1460 1460 1461 1465 1469 1472
1456 1459 1456 1461 1454 1451 1450 1450 1440 1426 1424 1419 1417 1413 1408 1407 1407 1408 1411 1414 1419 1426 1434 1442 1451 1455 1458 1460 1461 1462 1462 1462 1460 1459 1457 1455 1454 1452 1452 1453 1455 1457 1458 1458 1459 1460 1464 1468 1471
1454 1444 1450 1455 1462 1470 1451 1473 1445 1432 1420 1414 1409 1405 1404 1404 1406 1404 1407 1411 1417 1426 1436 1443 1449 1453 1457 1458 1459 1460 1461 1460 1458 1456 1455 1453 1452 1452 1452 1453 1455 1456 1457 1458 1459 1462 1465 1468 1471
1437 1438 1444 1448 1456 1459 1455 1468 1440 1430 1424 1411 1403 1399 1399 1400 1401 1403 1405 1410 1419 1429 1436 1442 1448 1452 1454 1456 1458 1459 1459 1459 1457 1455 1453 1452 1451 1452 1452 1454 1455 1457 1458 1458 1460 1462 1465 1468 1470
1430 1438 1443 1449 1458 1464 1451 1462 1442 1431 1413 1407 1398 1396 1396 1395 1396 1401 1407 1414 1423 1431 1436 1442 1447 1450 1453 1455 1457 1458 1458 1457 1456 1454 1452 1450 1450 1451 1453 1455 1456 1458 1459 1460 1461 1463 1466 1468 1470
1431 1449 1474 1479 1481 1468 1439 1454 1421 1408 1403 1399 1394 1392 1394 1396 1395 1400 1406 1414 1423 1430 1436 1441 1446 1448 1451 1454 1456 1457 1458 1456 1455 1453 1450 1449 1449 1452 1454 1456 1458 1459 1460 1461 1462 1464 1466 1468 1470
1425 1437 1463 1471 1470 1451 1433 1443 1406 1394 1393 1391 1390 1390 1393 1397 1396 1401 1407 1414 1423 1430 1435 1440 1445 1448 1450 1453 1456 1457 1457 1456 1455 1452 1449 1449 1450 1453 1456 1458 1459 1461 1461 1463 1464 1465 1466 1468 1469
1419 1434 1428 1445 1440 1450 1439 1415 1393 1385 1385 1383 1385 1388 1390 1396 1397 1401 1409 1416 1423 1429 1435 1440 1444 1447 1450 1453 1455 1456 1456 1456 1454 1452 1450 1451 1452 1454 1457 1459 1460 1462 1463 1464 1465 1466 1466 1468 1469
1404 1413 1438 1442 1456 1453 1435 1425 1413 1388 1386 1383 1387 1387 1391 1395 1399 1403 1411 1417 1424 1430 1435 1440 1444 1446 1449 1452 1454 1456 1456 1456 1454 1453 1452 1452 1453 1456 1458 1459 1461 1462 1463 1465 1465 1466 1466 1467 1468
1406 1415 1419 1424 1441 1448 1453 1428 1393 1386 1381 1383 1381 1383 1389 1390 1397 1403 1411 1419 1424 1430 1436 1440 1443 1446 1449 1452 1454 1455 1456 1456 1455 1453 1453 1454 1455 1456 1458 1460 1462 1463 1464 1465 1466 1467 1466 1467 1469
1384 1393 1407 1416 1433 1429 1432 1423 1379 1378 1378 1379 1380 1382 1390 1394 1397 1404 1411 1418 1424 1429 1435 1439 1442 1445 1448 1451 1453 1455 1456 1456 1455 1453 1454 1454 1455 1457 1459 1461 1462 1464 1465 1466 1467 1468 1468 1469 1469